Weather History for KFLP - February, 2013

Change the Weather History Date:

Monday, February 11, 2013

  Actual Average Record
Temperature  
Mean Temperature 44 °F -  
Max Temperature 55 °F 49 °F 68 °F (1999)
Min Temperature 33 °F 30 °F 0 °F (2011)
Degree Days  
Heating Degree Days 21    
Moisture  
Dew Point 24 °F    
Average Humidity 48    
Maximum Humidity 70    
Minimum Humidity 28    
Precipitation  
Precipitation 0.00 in - - ()
Sea Level Pressure  
Sea Level Pressure 30.11 in    
Wind  
Wind Speed 7 mph (NW)    
Max Wind Speed 14 mph    
Max Gust Speed 23 mph    
Visibility 10 miles    
Events      
Averages and records for this station are not official NWS values.
T = Trace of Precipitation, MM = Missing Value Source: NWS Daily Summary

Daily Weather History Graph

Daily Weather History Graph

Search for Another Location

Airport or City:

Trip Planner

Search our weather history database for the weather conditions in past years. The results will help you decide how hot, cold, wet, or windy it might be!

Date:

Astronomy

Feb. 11, 2013 Rise Set
Actual Time 7:02 AM CST 5:47 PM CST
Civil Twilight 6:35 AM CST 6:14 PM CST
Nautical Twilight 6:05 AM CST 6:44 PM CST
Astronomical Twilight 5:35 AM CST 7:14 PM CST
Moon 7:31 AM CST (2/11) 7:39 PM CST (2/11)
Length of Visible Light 11h 38m
Length of Day
10h 45m
Waxing Crescent, 3% of the Moon is Illuminated
Feb 11
Waxing Crescent
Feb 17
First Quarter
Feb 25
Full
Mar 4
Last Quarter
Mar 11
New

Hourly Weather History & Observations

Time (CST) Temp. Windchill Dew Point Humidity Pressure Visibility Wind Dir Wind Speed Gust Speed Precip Events Conditions
12:15 AM 44.6 °F 39.2 °F 24.8 °F 46% 30.01 in 10.0 mi WNW 10.4 mph 18.4 mph N/A   Clear
12:35 AM 44.6 °F 39.2 °F 24.8 °F 46% 30.02 in 10.0 mi WNW 10.4 mph - N/A   Clear
12:55 AM 44.6 °F 39.2 °F 23.0 °F 43% 30.02 in 10.0 mi WNW 10.4 mph 18.4 mph N/A   Clear
1:15 AM 42.8 °F 38.6 °F 23.0 °F 46% 30.03 in 10.0 mi West 6.9 mph - N/A   Clear
1:55 AM 42.8 °F 38.6 °F 23.0 °F 46% 30.03 in 10.0 mi West 6.9 mph - N/A   Clear
2:55 AM 41.0 °F 38.0 °F 23.0 °F 49% 30.04 in 10.0 mi WNW 4.6 mph - N/A   Clear
3:15 AM 39.2 °F - 23.0 °F 52% 30.04 in 10.0 mi Calm Calm - N/A   Clear
3:36 AM 39.2 °F 35.9 °F 23.0 °F 52% 30.06 in 10.0 mi SSW 4.6 mph - N/A   Clear
3:55 AM 37.4 °F 34.9 °F 23.0 °F 56% 30.06 in 10.0 mi SSW 3.5 mph - N/A   Clear
4:55 AM 37.4 °F - 23.0 °F 56% 30.08 in 10.0 mi Calm Calm - N/A   Clear
5:15 AM 37.4 °F 32.1 °F 24.8 °F 60% 30.08 in 10.0 mi WNW 6.9 mph - N/A   Clear
5:35 AM 39.2 °F 33.0 °F 23.0 °F 52% 30.08 in 10.0 mi WNW 9.2 mph - N/A   Clear
6:15 AM 37.4 °F 31.4 °F 21.2 °F 52% 30.08 in 10.0 mi NW 8.1 mph - N/A   Clear
6:35 AM 37.4 °F 32.1 °F 21.2 °F 52% 30.08 in 10.0 mi NW 6.9 mph - N/A   Clear
7:15 AM 39.2 °F 32.0 °F 23.0 °F 52% 30.09 in 10.0 mi NW 11.5 mph 16.1 mph N/A   Clear
7:35 AM 39.2 °F 32.0 °F 23.0 °F 52% 30.10 in 10.0 mi NW 11.5 mph 19.6 mph N/A   Clear
7:55 AM 39.2 °F 31.2 °F 24.8 °F 56% 30.11 in 10.0 mi NW 13.8 mph 23.0 mph N/A   Clear
8:35 AM 41.0 °F 33.5 °F 24.8 °F 53% 30.13 in 10.0 mi WNW 13.8 mph 18.4 mph N/A   Clear
8:55 AM 42.8 °F 36.2 °F 24.8 °F 49% 30.14 in 10.0 mi WNW 12.7 mph 18.4 mph N/A   Clear
9:15 AM 42.8 °F 37.5 °F 24.8 °F 49% 30.15 in 10.0 mi NNW 9.2 mph - N/A   Clear
9:35 AM 42.8 °F 37.5 °F 24.8 °F 49% 30.16 in 10.0 mi NNW 9.2 mph - N/A   Clear
9:55 AM 44.6 °F 38.8 °F 24.8 °F 46% 30.16 in 10.0 mi WNW 11.5 mph - N/A   Clear
10:35 AM 44.6 °F 40.2 °F 24.8 °F 46% 30.17 in 10.0 mi WNW 8.1 mph - N/A   Clear
10:55 AM 46.4 °F 41.9 °F 24.8 °F 43% 30.18 in 10.0 mi NNW 9.2 mph - N/A   Clear
11:15 AM 48.2 °F - 24.8 °F 40% 30.17 in 10.0 mi WNW 9.2 mph - N/A   Clear
11:35 AM 48.2 °F - 24.8 °F 40% 30.16 in 10.0 mi NNW 6.9 mph - N/A   Clear
11:55 AM 48.2 °F - 24.8 °F 40% 30.15 in 10.0 mi NNW 6.9 mph - N/A   Clear
12:55 PM 51.8 °F - 23.0 °F 33% 30.13 in 10.0 mi NNW 9.2 mph - N/A   Clear
1:15 PM 53.6 °F - 24.8 °F 33% 30.13 in 10.0 mi NW 9.2 mph - N/A   Clear
1:55 PM 53.6 °F - 23.0 °F 30% 30.13 in 10.0 mi Calm Calm - N/A   Clear
2:15 PM 53.6 °F - 24.8 °F 33% 30.12 in 10.0 mi West 9.2 mph - N/A   Clear
2:35 PM 53.6 °F - 23.0 °F 30% 30.12 in 10.0 mi Calm Calm - N/A   Clear
3:15 PM 55.4 °F - 24.8 °F 31% 30.10 in 10.0 mi NE 4.6 mph - N/A   Clear
3:35 PM 55.4 °F - 24.8 °F 31% 30.09 in 10.0 mi North 8.1 mph - N/A   Clear
3:55 PM 55.4 °F - 24.8 °F 31% 30.09 in 10.0 mi NNE 5.8 mph - N/A   Clear
4:55 PM 55.4 °F - 23.0 °F 29% 30.09 in 10.0 mi NNE 4.6 mph - N/A   Clear
5:35 PM 53.6 °F - 21.2 °F 28% 30.09 in 10.0 mi Calm Calm - N/A   Clear
6:35 PM 46.4 °F - 23.0 °F 40% 30.11 in 10.0 mi Calm Calm - N/A   Clear
6:55 PM 46.4 °F - 23.0 °F 40% 30.12 in 10.0 mi Calm Calm - N/A   Clear
7:15 PM 42.8 °F - 26.6 °F 53% 30.12 in 10.0 mi Calm Calm - N/A   Clear
7:55 PM 39.2 °F - 24.8 °F 56% 30.13 in 10.0 mi Calm Calm - N/A   Clear
8:35 PM 41.0 °F - 24.8 °F 53% 30.13 in 10.0 mi Calm Calm - N/A   Clear
8:56 PM 39.2 °F - 24.8 °F 56% 30.13 in 10.0 mi Calm Calm - N/A   Clear
9:15 PM 37.4 °F 34.9 °F 24.8 °F 60% 30.13 in 10.0 mi West 3.5 mph - N/A   Clear
9:35 PM 35.6 °F - 24.8 °F 65% 30.13 in 10.0 mi Calm Calm - N/A   Clear
9:55 PM 37.4 °F - 24.8 °F 60% 30.14 in 10.0 mi Calm Calm - N/A   Clear
10:15 PM 37.4 °F - 24.8 °F 60% 30.14 in 10.0 mi Calm Calm - N/A   Clear
10:35 PM 37.4 °F - 24.8 °F 60% 30.14 in 10.0 mi Calm Calm - N/A   Clear
10:55 PM 33.8 °F - 24.8 °F 70% 30.14 in 10.0 mi Calm Calm - N/A   Clear
11:16 PM 33.8 °F - 24.8 °F 70% 30.14 in 10.0 mi Calm Calm - N/A   Clear
11:35 PM 33.8 °F - 24.8 °F 70% 30.14 in 10.0 mi Calm Calm - N/A   Clear
11:55 PM 33.8 °F - 24.8 °F 70% 30.14 in 10.0 mi Calm Calm - N/A   Clear